London, United Kingdom

1:02 PM BST on June 22, 2017 (GMT +0100)
Heathrow

Weather History for EGLL - March, 2014

Change the Weather History Date:

Monday, March 24, 2014

  Actual Average Record
Temperature  
Mean Temperature 42 °F -  
Max Temperature 52 °F 55 °F 66 °F (2012)
Min Temperature 31 °F 40 °F 30 °F (2008)
Degree Days  
Heating Degree Days 24    
Moisture  
Dew Point 33 °F    
Average Humidity 67    
Maximum Humidity 93    
Minimum Humidity 36    
Precipitation  
Precipitation 0.01 in - - ()
Sea Level Pressure  
Sea Level Pressure 29.90 in    
Wind  
Wind Speed 7 mph ()    
Max Wind Speed 17 mph    
Max Gust Speed -    
Visibility 8.9 miles    
Events Fog , Rain    
Averages and records for this station are not official NWS values.
T = Trace of Precipitation, MM = Missing Value Source: Averaged Metar Reports

Daily Weather History Graph

Daily Weather History Graph

Search for Another Location

Airport or City:

Trip Planner

Search our weather history database for the weather conditions in past years. The results will help you decide how hot, cold, wet, or windy it might be!

Date:

Astronomy

Mar. 24, 2014 Rise Set
Actual Time 5:55 AM GMT 6:21 PM GMT
Civil Twilight 5:22 AM GMT 6:54 PM GMT
Nautical Twilight 4:42 AM GMT 7:34 PM GMT
Astronomical Twilight 4:01 AM GMT 8:16 PM GMT
Moon 1:51 AM GMT (3/24) 10:52 AM GMT (3/24)
Length of Visible Light 13h 32m
Length of Day
12h 25m
Last Quarter, 45% of the Moon is Illuminated
Mar 24
Last Quarter
Mar 30
New
Apr 7
First Quarter
Apr 15
Full
Apr 22
Last Quarter

Hourly Weather History & Observations

Time (GMT) Temp. Windchill Dew Point Humidity Pressure Visibility Wind Dir Wind Speed Gust Speed Precip Events Conditions
12:00 AM 39 °F - 32 °F 69% 29.97 in 16 mi NW 3.5 mph - -  
12:20 AM 39.2 °F 35.9 °F 32.0 °F 75% 29.98 in 6.2 mi West 4.6 mph - N/A   Unknown
12:50 AM 37.4 °F 34.9 °F 32.0 °F 81% 29.98 in - WNW 3.5 mph - N/A   Clear
1:00 AM 38 °F - 32 °F 71% 29.97 in 19 mi WNW 3.5 mph - -  
1:20 AM 35.6 °F 32.8 °F 32.0 °F 87% 29.98 in 6.2 mi West 3.5 mph - N/A   Unknown
1:50 AM 35.6 °F 29.2 °F 32.0 °F 87% 29.98 in 6.2 mi West 8.1 mph - N/A   Unknown
2:00 AM 36 °F - 32 °F 78% 29.97 in 18 mi West 6.9 mph - -  
2:20 AM 33.8 °F 29.6 °F 32.0 °F 93% 29.98 in 6.2 mi WNW 4.6 mph - N/A   Unknown
2:50 AM 35.6 °F - 32.0 °F 87% 29.95 in - Variable 2.3 mph - N/A   Clear
3:00 AM 35 °F - 31 °F 78% 29.97 in 15 mi NNW 3.5 mph - -  
3:20 AM 35.6 °F - 32.0 °F 87% 29.95 in - WNW 2.3 mph - N/A   Clear
3:50 AM 33.8 °F 29.6 °F 30.2 °F 87% 29.98 in - West 4.6 mph - N/A   Clear
4:00 AM 33 °F - 29 °F 81% 29.98 in 13 mi West 3.5 mph - -  
4:20 AM 33.8 °F 29.6 °F 32.0 °F 93% 29.98 in - West 4.6 mph - N/A   Clear
4:50 AM 33.8 °F - 30.2 °F 87% 29.98 in - Variable 2.3 mph - N/A   Clear
5:00 AM 33 °F - 31 °F 87% 29.98 in 9 mi NNE 2.3 mph - -  
5:20 AM 32.0 °F - 30.2 °F 93% 29.98 in - East 2.3 mph - N/A   Clear
5:50 AM 32.0 °F 28.7 °F 30.2 °F 93% 29.98 in 5.0 mi ENE 3.5 mph - N/A Fog Fog
6:00 AM 33 °F - 30 °F 86% 29.97 in 7 mi ENE 2.3 mph - -  
6:20 AM 32.0 °F 28.7 °F 30.2 °F 93% 29.98 in 5.0 mi Variable 3.5 mph - N/A Fog Fog
6:50 AM 33.8 °F 29.6 °F 32.0 °F 93% 29.98 in 5.0 mi South 4.6 mph - N/A   Partly Cloudy
7:00 AM 34 °F - 31 °F 86% 29.99 in 8 mi SSW 5.8 mph - -  
7:20 AM 35.6 °F 32.8 °F 32.0 °F 87% 29.98 in 5.0 mi SSW 3.5 mph - N/A   Unknown
7:50 AM 37.4 °F 33.8 °F 33.8 °F 87% 29.98 in 5.6 mi South 4.6 mph - N/A   Unknown
8:00 AM 38 °F - 33 °F 74% 29.99 in 9 mi South 3.5 mph - -  
8:20 AM 41.0 °F 38.0 °F 35.6 °F 81% 29.98 in - SE 4.6 mph - N/A   Clear
8:50 AM 42.8 °F 38.6 °F 35.6 °F 76% 29.98 in - SE 6.9 mph - N/A   Clear
9:00 AM 42 °F - 34 °F 64% 29.97 in 12 mi ESE 8.1 mph - -  
9:20 AM 44.6 °F 39.2 °F 35.6 °F 71% 29.95 in - SSE 10.4 mph - N/A   Clear
9:50 AM 46.4 °F 41.1 °F 33.8 °F 62% 29.95 in 6.2 mi SE 11.5 mph - N/A   Partly Cloudy
10:00 AM 46 °F - 32 °F 47% 29.96 in 25 mi SSE 12.7 mph - -  
10:20 AM 48.2 °F - 32.0 °F 54% 29.95 in 6.2 mi SSE 10.4 mph - N/A   Partly Cloudy
10:50 AM 48.2 °F - 33.8 °F 58% 29.95 in 6.2 mi SSE 10.4 mph - N/A   Partly Cloudy
11:00 AM 47 °F - 32 °F 44% 29.94 in 19 mi SSE 12.7 mph - -  
11:20 AM 50.0 °F - 33.8 °F 54% 29.92 in 6.2 mi SSE 12.7 mph - N/A   Partly Cloudy
11:50 AM 50.0 °F - 33.8 °F 54% 29.92 in 6.2 mi SE 13.8 mph - N/A   Scattered Clouds
12:00 PM 50 °F - 33 °F 39% 29.91 in 19 mi SSE 15.0 mph - -   Scattered Clouds
12:20 PM 48.2 °F - 32.0 °F 54% 29.89 in 6.2 mi SSE 13.8 mph - N/A   Scattered Clouds
12:50 PM 50.0 °F - 33.8 °F 54% 29.89 in 6.2 mi SSE 13.8 mph - N/A   Scattered Clouds
1:00 PM 50 °F - 32 °F 38% 29.89 in 25 mi South 13.8 mph - -   Partly Cloudy
1:20 PM 50.0 °F - 32.0 °F 50% 29.89 in 6.2 mi South 13.8 mph - N/A   Scattered Clouds
1:50 PM 51.8 °F - 32.0 °F 47% 29.86 in 6.2 mi South 15.0 mph - N/A   Scattered Clouds
2:00 PM 52 °F - 34 °F 38% 29.88 in 22 mi SSE 15.0 mph - -   Partly Cloudy
2:20 PM 51.8 °F - 32.0 °F 47% 29.86 in 6.2 mi SSE 12.7 mph - N/A   Scattered Clouds
2:50 PM 50.0 °F - 30.2 °F 47% 29.86 in 6.2 mi South 16.1 mph - N/A   Mostly Cloudy
3:00 PM 49 °F - 31 °F 36% 29.86 in 25 mi South 15.0 mph - -  
3:20 PM 50.0 °F - 30.2 °F 47% 29.86 in 6.2 mi South 15.0 mph - N/A   Scattered Clouds
3:50 PM 48.2 °F - 30.2 °F 50% 29.86 in 6.2 mi South 17.3 mph - N/A   Scattered Clouds
4:00 PM 48 °F - 30 °F 38% 29.85 in 22 mi South 16.1 mph - -   Partly Cloudy
4:20 PM 48.2 °F - 30.2 °F 50% 29.83 in 6.2 mi SSE 15.0 mph - N/A   Partly Cloudy
4:50 PM 48.2 °F - 32.0 °F 54% 29.83 in 6.2 mi South 13.8 mph - N/A   Partly Cloudy
5:00 PM 47 °F - 31 °F 41% 29.84 in 22 mi SSE 15.0 mph - -  
5:20 PM 46.4 °F 40.4 °F 32.0 °F 57% 29.83 in 6.2 mi SSE 13.8 mph - N/A   Partly Cloudy
5:50 PM 46.4 °F 41.1 °F 33.8 °F 62% 29.83 in - SSE 11.5 mph - N/A   Clear
6:00 PM 46 °F - 33 °F 48% 29.83 in 22 mi SE 12.7 mph - -  
6:20 PM 46.4 °F 41.9 °F 33.8 °F 62% 29.83 in - SSE 9.2 mph - N/A   Clear
6:50 PM 44.6 °F 39.7 °F 33.8 °F 66% 29.83 in - SSE 9.2 mph - N/A   Clear
7:00 PM 45 °F - 33 °F 53% 29.83 in 17 mi SE 9.2 mph - -   Mostly Cloudy
7:20 PM 44.6 °F 39.2 °F 35.6 °F 71% 29.83 in - SSE 10.4 mph - N/A   Clear
7:50 PM 44.6 °F 39.7 °F 35.6 °F 71% 29.83 in - SE 9.2 mph - N/A   Clear
8:00 PM 44 °F - 34 °F 57% 29.83 in 12 mi SE 11.5 mph - -   Mostly Cloudy
8:20 PM 42.8 °F 36.6 °F 33.8 °F 70% 29.80 in - SE 11.5 mph - N/A   Clear
8:50 PM 44.6 °F 39.2 °F 35.6 °F 71% 29.80 in - SE 10.4 mph - N/A   Clear
9:00 PM 44 °F - 34 °F 57% 29.82 in 16 mi SE 13.8 mph - -   Mostly Cloudy
9:20 PM 44.6 °F 38.8 °F 35.6 °F 71% 29.80 in - SE 11.5 mph - N/A   Clear
9:50 PM 44.6 °F 38.8 °F 35.6 °F 71% 29.80 in 6.2 mi SE 11.5 mph - N/A   Partly Cloudy
10:00 PM 45 °F - 35 °F 56% 29.80 in 15 mi SE 13.8 mph - -   Mostly Cloudy
10:20 PM 44.6 °F 39.2 °F 35.6 °F 71% 29.77 in 6.2 mi SE 10.4 mph - N/A   Scattered Clouds
10:50 PM 46.4 °F 41.9 °F 37.4 °F 71% 29.77 in 6.2 mi SE 9.2 mph - N/A   Mostly Cloudy
11:00 PM 45 °F - 36 °F 60% 29.80 in 14 mi SE 11.5 mph - - Rain Light Rain Showers
11:20 PM 44.6 °F 39.2 °F 39.2 °F 81% 29.77 in 6.2 mi South 10.4 mph - N/A   Light Drizzle
11:50 PM 44.6 °F 41.4 °F 39.2 °F 81% 29.77 in 5.6 mi SSE 5.8 mph - N/A   Drizzle